| time (UTC) | temp F | wind direction | speed MPH | gust MPH | rain 1hr in | rain 24hr in | rain mn in | humidity % | barometer mb |
| 20260504050524 | 66 | 30 | 2.0 | 6.0 | 0.00 | 0.00 | 0.00 | 50 | 1005.9 |
| 20260504050123 | 66 | 342 | 1.0 | 4.0 | 0.00 | 0.00 | 0.00 | 50 | 1005.8 |
| 20260504045523 | 66 | 305 | 0.0 | 4.0 | 0.00 | 0.00 | 0.00 | 50 | 1005.9 |
| 20260504045024 | 66 | 28 | 0.0 | 3.0 | 0.00 | 0.00 | 0.00 | 51 | 1005.9 |
| 20260504044527 | 66 | 29 | 1.0 | 3.0 | 0.00 | 0.00 | 0.00 | 49 | 1005.9 |
| 20260504044023 | 67 | 30 | 1.0 | 5.0 | 0.00 | 0.00 | 0.00 | 50 | 1005.9 |
| 20260504043522 | 67 | 106 | 1.0 | 5.0 | 0.00 | 0.00 | 0.00 | 49 | 1005.8 |
| 20260504043023 | 67 | 19 | 1.0 | 3.0 | 0.00 | 0.00 | 0.00 | 48 | 1005.9 |
| 20260504042523 | 67 | 19 | 1.0 | 4.0 | 0.00 | 0.00 | 0.00 | 48 | 1005.9 |
| 20260504042022 | 68 | 21 | 1.0 | 4.0 | 0.00 | 0.00 | 0.00 | 48 | 1005.9 |
| 20260504041522 | 68 | 13 | 0.0 | 4.0 | 0.00 | 0.00 | 0.00 | 48 | 1005.8 |
| 20260504041022 | 68 | 19 | 1.0 | 4.0 | 0.00 | 0.00 | 0.00 | 48 | 1005.9 |
| 20260504040522 | 68 | 8 | 1.0 | 4.0 | 0.00 | 0.00 | 0.00 | 48 | 1005.9 |
| 20260504040022 | 69 | 10 | 0.0 | 4.0 | 0.00 | 0.00 | 0.00 | 46 | 1005.9 |
| 20260504035524 | 69 | 40 | 1.0 | 6.0 | 0.00 | 0.00 | 0.00 | 46 | 1005.9 |
| 20260504035020 | 70 | 36 | 2.0 | 6.0 | 0.00 | 0.00 | 0.00 | 43 | 1005.8 |
| 20260504034518 | 70 | 18 | 1.0 | 8.0 | 0.00 | 0.00 | 0.00 | 44 | 1005.8 |
| 20260504034016 | 71 | 308 | 3.0 | 8.0 | 0.00 | 0.00 | 0.00 | 41 | 1005.8 |
| 20260504033516 | 71 | 311 | 3.0 | 8.0 | 0.00 | 0.00 | 0.00 | 41 | 1005.8 |
| 20260504033013 | 71 | 287 | 2.0 | 7.0 | 0.00 | 0.00 | 0.00 | 42 | 1005.8 |
| 20260504032518 | 71 | 316 | 1.0 | 4.0 | 0.00 | 0.00 | 0.00 | 43 | 1005.8 |
| 20260504032010 | 71 | 304 | 1.0 | 3.0 | 0.00 | 0.00 | 0.00 | 44 | 1005.7 |
| 20260504031511 | 72 | 285 | 1.0 | 4.0 | 0.00 | 0.00 | 0.00 | 42 | 1005.8 |
| 20260504031009 | 72 | 285 | 0.0 | 4.0 | 0.00 | 0.00 | 0.00 | 43 | 1005.8 |
| 20260504030509 | 72 | 319 | 1.0 | 3.0 | 0.00 | 0.00 | 0.00 | 43 | 1005.8 |
| 20260504030008 | 73 | 101 | 0.0 | 2.0 | 0.00 | 0.00 | 0.00 | 44 | 1005.8 |
| 20260504025507 | 73 | 106 | 0.0 | 2.0 | 0.00 | 0.00 | 0.00 | 43 | 1005.9 |
| 20260504025005 | 74 | 106 | 1.0 | 2.0 | 0.00 | 0.00 | 0.00 | 43 | 1005.8 |
| 20260504024503 | 74 | 106 | 1.0 | 2.0 | 0.00 | 0.00 | 0.00 | 44 | 1005.8 |
| 20260504024002 | 75 | 106 | 1.0 | 2.0 | 0.00 | 0.00 | 0.00 | 42 | 1005.8 |
| 20260504023600 | 75 | 106 | 1.0 | 2.0 | 0.00 | 0.00 | 0.00 | 40 | 1005.8 |
| 20260504023059 | 75 | 106 | 0.0 | 2.0 | 0.00 | 0.00 | 0.00 | 39 | 1005.9 |
| 20260504022602 | 76 | 106 | 1.0 | 2.0 | 0.00 | 0.00 | 0.00 | 36 | 1005.9 |
| 20260504022056 | 77 | 106 | 0.0 | 1.0 | 0.00 | 0.00 | 0.00 | 37 | 1006.0 |
| 20260504021555 | 78 | 106 | 0.0 | 1.0 | 0.00 | 0.00 | 0.00 | 35 | 1005.9 |
| 20260504021053 | 79 | 93 | 0.0 | 2.0 | 0.00 | 0.00 | 0.00 | 32 | 1005.9 |
| 20260504020552 | 79 | 93 | 0.0 | 2.0 | 0.00 | 0.00 | 0.00 | 31 | 1006.0 |
| 20260504020050 | 80 | 93 | 0.0 | 2.0 | 0.00 | 0.00 | 0.00 | 30 | 1006.0 |
| 20260504015549 | 80 | 93 | 1.0 | 2.0 | 0.00 | 0.00 | 0.00 | 29 | 1006.1 |
| 20260504015047 | 80 | 93 | 0.0 | 2.0 | 0.00 | 0.00 | 0.00 | 29 | 1006.0 |
| 20260504014546 | 80 | 92 | 0.0 | 2.0 | 0.00 | 0.00 | 0.00 | 29 | 1006.1 |
| 20260504014045 | 80 | 149 | 0.0 | 3.0 | 0.00 | 0.00 | 0.00 | 27 | 1006.2 |
| 20260504013542 | 81 | 133 | 1.0 | 3.0 | 0.00 | 0.00 | 0.00 | 28 | 1006.3 |
| 20260504013041 | 81 | 25 | 0.0 | 4.0 | 0.00 | 0.00 | 0.00 | 27 | 1006.3 |
| 20260504012640 | 81 | 353 | 2.0 | 4.0 | 0.00 | 0.00 | 0.00 | 27 | 1006.4 |
| 20260504012039 | 81 | 186 | 0.0 | 3.0 | 0.00 | 0.00 | 0.00 | 29 | 1006.5 |
| 20260504011537 | 81 | 162 | 1.0 | 3.0 | 0.00 | 0.00 | 0.00 | 28 | 1006.5 |
| 20260504011035 | 82 | 161 | 0.0 | 3.0 | 0.00 | 0.00 | 0.00 | 28 | 1006.6 |
| 20260504010534 | 82 | 147 | 1.0 | 4.0 | 0.00 | 0.00 | 0.00 | 28 | 1006.6 |
| 20260504010032 | 82 | 111 | 0.0 | 4.0 | 0.00 | 0.00 | 0.00 | 28 | 1006.6 |
| 20260504005530 | 82 | 142 | 1.0 | 4.0 | 0.00 | 0.00 | 0.00 | 26 | 1006.7 |
| 20260504005028 | 82 | 63 | 0.0 | 4.0 | 0.00 | 0.00 | 0.00 | 29 | 1006.7 |
| 20260504004529 | 82 | 142 | 1.0 | 4.0 | 0.00 | 0.00 | 0.00 | 28 | 1006.8 |
| 20260504004028 | 82 | 70 | 0.0 | 4.0 | 0.00 | 0.00 | 0.00 | 31 | 1006.8 |
| 20260504003524 | 82 | 63 | 0.0 | 4.0 | 0.00 | 0.00 | 0.00 | 31 | 1006.9 |
| 20260504003037 | 82 | 52 | 0.0 | 4.0 | 0.00 | 0.00 | 0.00 | 31 | 1007.0 |
| 20260504002521 | 82 | 166 | 2.0 | 4.0 | 0.00 | 0.00 | 0.00 | 30 | 1007.1 |
| 20260504002020 | 82 | 146 | 1.0 | 3.0 | 0.00 | 0.00 | 0.00 | 30 | 1007.1 |
| 20260504001521 | 83 | 326 | 1.0 | 3.0 | 0.00 | 0.00 | 0.00 | 29 | 1007.1 |
| 20260504001017 | 82 | 40 | 1.0 | 6.0 | 0.00 | 0.00 | 0.00 | 29 | 1007.2 |
| 20260504000517 | 81 | 166 | 1.0 | 6.0 | 0.00 | 0.00 | 0.00 | 32 | 1007.2 |
| 20260504000040 | 81 | 82 | 1.0 | 4.0 | 0.00 | 0.00 | 0.00 | 33 | 1007.2 |
| 20260503235513 | 81 | 158 | 1.0 | 4.0 | 0.00 | 0.00 | 0.00 | 32 | 1007.4 |
| 20260503235011 | 81 | 157 | 1.0 | 3.0 | 0.00 | 0.00 | 0.00 | 31 | 1007.4 |
| 20260503234510 | 82 | 71 | 0.0 | 4.0 | 0.00 | 0.00 | 0.00 | 33 | 1007.5 |
| 20260503234008 | 81 | 192 | 1.0 | 5.0 | 0.00 | 0.00 | 0.00 | 32 | 1007.5 |
| 20260503233507 | 81 | 121 | 2.0 | 5.0 | 0.00 | 0.00 | 0.00 | 33 | 1007.5 |
| 20260503233008 | 81 | 201 | 1.0 | 4.0 | 0.00 | 0.00 | 0.00 | 33 | 1007.6 |
| 20260503232503 | 80 | 140 | 0.0 | 5.0 | 0.00 | 0.00 | 0.00 | 35 | 1007.6 |
| 20260503232002 | 80 | 144 | 2.0 | 5.0 | 0.00 | 0.00 | 0.00 | 34 | 1007.7 |
| 20260503231601 | 81 | 168 | 1.0 | 5.0 | 0.00 | 0.00 | 0.00 | 35 | 1007.7 |
| 20260503231100 | 79 | 175 | 2.0 | 4.0 | 0.00 | 0.00 | 0.00 | 34 | 1007.8 |
| 20260503230559 | 80 | 218 | 2.0 | 4.0 | 0.00 | 0.00 | 0.00 | 34 | 1007.9 |
| 20260503230056 | 80 | 149 | 1.0 | 6.0 | 0.00 | 0.00 | 0.00 | 35 | 1008.0 |
| 20260503225554 | 80 | 175 | 0.0 | 6.0 | 0.00 | 0.00 | 0.00 | 38 | 1008.0 |
| 20260503225053 | 80 | 165 | 2.0 | 5.0 | 0.00 | 0.00 | 0.00 | 34 | 1008.1 |
| 20260503224552 | 80 | 146 | 2.0 | 5.0 | 0.00 | 0.00 | 0.00 | 33 | 1008.1 |
| 20260503224050 | 80 | 115 | 1.0 | 3.0 | 0.00 | 0.00 | 0.00 | 33 | 1008.2 |
| 20260503223548 | 79 | 47 | 1.0 | 4.0 | 0.00 | 0.00 | 0.00 | 33 | 1008.3 |
| 20260503223048 | 78 | 81 | 2.0 | 4.0 | 0.00 | 0.00 | 0.00 | 34 | 1008.4 |
| 20260503222545 | 78 | 175 | 1.0 | 5.0 | 0.00 | 0.00 | 0.00 | 34 | 1008.5 |
| 20260503222044 | 79 | 202 | 1.0 | 5.0 | 0.00 | 0.00 | 0.00 | 34 | 1008.5 |
| 20260503221551 | 79 | 65 | 1.0 | 5.0 | 0.00 | 0.00 | 0.00 | 38 | 1008.6 |
| 20260503221042 | 79 | 34 | 1.0 | 3.0 | 0.00 | 0.00 | 0.00 | 36 | 1008.6 |
| 20260503220540 | 78 | 61 | 1.0 | 5.0 | 0.00 | 0.00 | 0.00 | 37 | 1008.7 |
| 20260503220039 | 77 | 126 | 1.0 | 5.0 | 0.00 | 0.00 | 0.00 | 37 | 1008.7 |
| 20260503215537 | 78 | 163 | 2.0 | 4.0 | 0.00 | 0.00 | 0.00 | 36 | 1008.7 |
| 20260503215034 | 79 | 34 | 1.0 | 3.0 | 0.00 | 0.00 | 0.00 | 36 | 1008.8 |
| 20260503214536 | 78 | 73 | 1.0 | 5.0 | 0.00 | 0.00 | 0.00 | 36 | 1008.8 |
| 20260503214032 | 77 | 164 | 1.0 | 5.0 | 0.00 | 0.00 | 0.00 | 39 | 1009.0 |
| 20260503213530 | 77 | 111 | 2.0 | 5.0 | 0.00 | 0.00 | 0.00 | 37 | 1009.0 |
| 20260503213029 | 76 | 190 | 1.0 | 5.0 | 0.00 | 0.00 | 0.00 | 39 | 1009.1 |
| 20260503212528 | 77 | 144 | 2.0 | 6.0 | 0.00 | 0.00 | 0.00 | 37 | 1009.1 |
| 20260503212027 | 77 | 162 | 2.0 | 6.0 | 0.00 | 0.00 | 0.00 | 37 | 1009.2 |
| 20260503211524 | 77 | 60 | 1.0 | 6.0 | 0.00 | 0.00 | 0.00 | 40 | 1009.2 |
| 20260503211023 | 78 | 144 | 1.0 | 6.0 | 0.00 | 0.00 | 0.00 | 39 | 1009.3 |
| 20260503210523 | 78 | 125 | 1.0 | 6.0 | 0.00 | 0.00 | 0.00 | 40 | 1009.3 |
| 20260503210020 | 77 | 88 | 1.0 | 6.0 | 0.00 | 0.00 | 0.00 | 40 | 1009.4 |
| 20260503205519 | 77 | 38 | 1.0 | 5.0 | 0.00 | 0.00 | 0.00 | 39 | 1009.4 |
| 20260503205017 | 75 | 186 | 1.0 | 6.0 | 0.00 | 0.00 | 0.00 | 41 | 1009.5 |
| 20260503204515 | 76 | 171 | 3.0 | 6.0 | 0.00 | 0.00 | 0.00 | 39 | 1009.6 |
| 20260503204013 | 77 | 189 | 1.0 | 6.0 | 0.00 | 0.00 | 0.00 | 38 | 1009.6 |
| 20260503203515 | 77 | 142 | 1.0 | 5.0 | 0.00 | 0.00 | 0.00 | 42 | 1009.6 |
| 20260503203019 | 76 | 49 | 3.0 | 5.0 | 0.00 | 0.00 | 0.00 | 39 | 1009.8 |
| 20260503202510 | 77 | 88 | 1.0 | 4.0 | 0.00 | 0.00 | 0.00 | 42 | 1009.8 |
| 20260503202009 | 76 | 86 | 0.0 | 3.0 | 0.00 | 0.00 | 0.00 | 43 | 1009.9 |
| 20260503201507 | 76 | 115 | 1.0 | 7.0 | 0.00 | 0.00 | 0.00 | 43 | 1009.9 |
| 20260503201005 | 75 | 148 | 2.0 | 7.0 | 0.00 | 0.00 | 0.00 | 42 | 1010.0 |
| 20260503200504 | 75 | 178 | 2.0 | 5.0 | 0.00 | 0.00 | 0.00 | 41 | 1010.1 |
| 20260503200003 | 75 | 171 | 2.0 | 5.0 | 0.00 | 0.00 | 0.00 | 42 | 1010.1 |
| 20260503195501 | 74 | 156 | 3.0 | 5.0 | 0.00 | 0.00 | 0.00 | 40 | 1010.2 |
| 20260503195059 | 75 | 180 | 2.0 | 4.0 | 0.00 | 0.00 | 0.00 | 40 | 1010.2 |
| 20260503194600 | 75 | 137 | 0.0 | 4.0 | 0.00 | 0.00 | 0.00 | 41 | 1010.3 |
| 20260503194056 | 75 | 187 | 1.0 | 5.0 | 0.00 | 0.00 | 0.00 | 43 | 1010.3 |
| 20260503193555 | 74 | 163 | 1.0 | 5.0 | 0.00 | 0.00 | 0.00 | 42 | 1010.4 |
| 20260503193054 | 73 | 94 | 1.0 | 5.0 | 0.00 | 0.00 | 0.00 | 44 | 1010.5 |
| 20260503192552 | 73 | 154 | 2.0 | 5.0 | 0.00 | 0.00 | 0.00 | 42 | 1010.5 |
| 20260503192050 | 73 | 138 | 2.0 | 4.0 | 0.00 | 0.00 | 0.00 | 43 | 1010.6 |
| 20260503191549 | 73 | 118 | 2.0 | 4.0 | 0.00 | 0.00 | 0.00 | 41 | 1010.6 |
| 20260503191050 | 72 | 181 | 2.0 | 5.0 | 0.00 | 0.00 | 0.00 | 43 | 1010.6 |
| 20260503190545 | 73 | 156 | 2.0 | 5.0 | 0.00 | 0.00 | 0.00 | 44 | 1010.7 |
| 20260503190045 | 72 | 225 | 2.0 | 4.0 | 0.00 | 0.00 | 0.00 | 43 | 1010.7 |
| 20260503185543 | 72 | 165 | 1.0 | 6.0 | 0.00 | 0.00 | 0.00 | 43 | 1010.8 |
| 20260503185041 | 72 | 177 | 2.0 | 6.0 | 0.00 | 0.00 | 0.00 | 43 | 1010.8 |
| 20260503184540 | 71 | 101 | 0.0 | 7.0 | 0.00 | 0.00 | 0.00 | 44 | 1010.8 |
| 20260503184039 | 72 | 213 | 3.0 | 7.0 | 0.00 | 0.00 | 0.00 | 42 | 1010.9 |
| 20260503183536 | 71 | 218 | 1.0 | 5.0 | 0.00 | 0.00 | 0.00 | 44 | 1010.8 |
| 20260503183036 | 71 | 186 | 1.0 | 5.0 | 0.00 | 0.00 | 0.00 | 43 | 1010.8 |
| 20260503182536 | 71 | 48 | 2.0 | 4.0 | 0.00 | 0.00 | 0.00 | 46 | 1010.9 |
| 20260503182033 | 70 | 175 | 1.0 | 4.0 | 0.00 | 0.00 | 0.00 | 45 | 1010.9 |
| 20260503181531 | 70 | 196 | 1.0 | 4.0 | 0.00 | 0.00 | 0.00 | 46 | 1010.9 |
| 20260503181030 | 71 | 240 | 1.0 | 4.0 | 0.00 | 0.00 | 0.00 | 46 | 1010.9 |
| 20260503180528 | 71 | 218 | 1.0 | 4.0 | 0.00 | 0.00 | 0.00 | 46 | 1010.8 |
| 20260503180030 | 71 | 173 | 1.0 | 4.0 | 0.00 | 0.00 | 0.00 | 47 | 1010.9 |
| 20260503175525 | 71 | 164 | 1.0 | 3.0 | 0.00 | 0.00 | 0.00 | 47 | 1010.9 |
| 20260503175023 | 70 | 207 | 1.0 | 5.0 | 0.00 | 0.00 | 0.00 | 48 | 1011.0 |
| 20260503174522 | 69 | 151 | 2.0 | 5.0 | 0.00 | 0.00 | 0.00 | 48 | 1011.0 |
| 20260503174022 | 70 | 138 | 0.0 | 4.0 | 0.00 | 0.00 | 0.00 | 49 | 1011.0 |
| 20260503173519 | 69 | 145 | 0.0 | 2.0 | 0.00 | 0.00 | 0.00 | 51 | 1011.0 |
| 20260503173036 | 69 | 165 | 0.0 | 5.0 | 0.00 | 0.00 | 0.00 | 52 | 1011.1 |
| 20260503172516 | 68 | 166 | 0.0 | 5.0 | 0.00 | 0.00 | 0.00 | 53 | 1011.2 |
| 20260503172015 | 68 | 34 | 1.0 | 3.0 | 0.00 | 0.00 | 0.00 | 54 | 1011.2 |
| 20260503171513 | 67 | 82 | 0.0 | 4.0 | 0.00 | 0.00 | 0.00 | 54 | 1011.2 |
| 20260503171014 | 67 | 180 | 2.0 | 4.0 | 0.00 | 0.00 | 0.00 | 54 | 1011.2 |
| 20260503170510 | 67 | 61 | 1.0 | 3.0 | 0.00 | 0.00 | 0.00 | 54 | 1011.2 |
| 20260503150538 | 56 | 13 | 0.0 | 2.0 | 0.00 | 0.00 | 0.00 | 68 | 1011.8 |
| 20260503131028 | 55 | 17 | 1.0 | 2.0 | 0.00 | 0.00 | 0.00 | 64 | 1011.6 |
| 20260503130527 | 56 | 18 | 1.0 | 2.0 | 0.00 | 0.00 | 0.00 | 65 | 1011.5 |
| 20260503110517 | 56 | 354 | 1.0 | 3.0 | 0.00 | 0.00 | 0.00 | 61 | 1011.7 |
| 20260503090503 | 61 | 271 | 0.0 | 6.0 | 0.00 | 0.00 | 0.00 | 50 | 1011.7 |
| 20260503081558 | 59 | 303 | 1.0 | 5.0 | 0.00 | 0.00 | 0.00 | 57 | 1011.4 |
| 20260503081102 | 59 | 270 | 2.0 | 5.0 | 0.00 | 0.00 | 0.00 | 58 | 1011.4 |
| 20260503080600 | 59 | 318 | 1.0 | 4.0 | 0.00 | 0.00 | 0.00 | 57 | 1011.4 |
| 20260503072552 | 59 | 1 | 1.0 | 6.0 | 0.00 | 0.00 | 0.00 | 56 | 1011.4 |
| 20260503072051 | 59 | 10 | 1.0 | 3.0 | 0.00 | 0.00 | 0.00 | 56 | 1011.3 |
| 20260503071558 | 60 | 9 | 1.0 | 4.0 | 0.00 | 0.00 | 0.00 | 55 | 1011.3 |
| 20260503071049 | 60 | 314 | 1.0 | 4.0 | 0.00 | 0.00 | 0.00 | 54 | 1011.3 |
| 20260503070547 | 60 | 319 | 0.0 | 6.0 | 0.00 | 0.00 | 0.00 | 55 | 1011.2 |